Terminal Aerodrome Forecast
Issued by NWS

Home | Current Version | Previous Version | Text Only | Print | Product List | Glossary On
Versions: 1 2 3 4 5 6 7 8 9 10 11 12 13 14 15 16
000
FTUS41 KBTV 212000 AAA
TAFMSS
TAF AMD
KMSS 212023Z 2120/2218 16007KT P6SM -RA OVC050
      TEMPO 2120/2123 1SM TSRA BR BKN020CB
     FM220000 06005KT P6SM VCSH BKN040
     FM220500 06006KT 4SM BR OVC025
     FM221300 07008KT P6SM VCSH BKN035=

USA.gov is the U.S. government's official web portal to all federal, state and local government web resources and services.